Regional Weather Roundup
Issued by NWS

Home | Current Version | Previous Version | Text Only | Print | Product List | Glossary On
Versions: 1 2 3 4 5 6 7 8 9 10 11 12 13 14 15 16 17 18 19 20 21 22 23 24 25 26 27 28 29 30 31 32 33 34 35 36 37 38 39 40 41 42 43 44 45 46 47 48 49 50
000
ASCA42 TJSJ 040810
RWRPR
PUERTO RICO/U.S. VIRGIN ISLANDS HOURLY WEATHER ROUNDUP
NATIONAL WEATHER SERVICE SAN JUAN PR
400 AM AST WED MAR 04 2015

PRZ001-004-040900-
PUERTO RICO

CITY           SKY/WX    TMP DP  RH WIND       PRES   REMARKS
SAN JUAN LMM   MOCLDY    72  66  83 E9        30.03S
PONCE          MOCLDY    73  63  68 CALM      29.97
CEIBA          CLOUDY   N/A N/A N/A NE14G22   30.04F
$$

PRZ006-007-040900-
U.S. VIRGIN ISLANDS

CITY           SKY/WX    TMP DP  RH WIND       PRES   REMARKS
$$

HOURLY WEATHER ROUNDUP FOR THE NEWS MEDIA

CITY           SKY/WX    TMP DP  RH WIND       PRES   REMARKS
ORLANDO        CLEAR     68  66  93 SE6       30.11F
NEW YORK       CLOUDY    36  32  85 SW14      29.79F WCI  27
NEWARK         CLOUDY    36  34  93 SW13      29.76F WCI  27
CHICAGO        CLOUDY    29  21  72 W10       29.87S WCI  20
HARTFORD       LGT RAIN  42  41  96 SW16G29   29.67F
BOSTON         CLOUDY    36  34  92 SW8       29.66F WCI  30
DALLAS         CLOUDY    54  52  94 SE6       29.85S FOG
PHILADELPHIA   LGT RAIN  34  32  92 SW10      29.82F FOG     WCI  26
LOS ANGELES    CLEAR     55  40  56 NE6       29.96R
WASHINGTON DC  CLOUDY    36  32  85 NW3       29.84F


USA.gov is the U.S. government's official web portal to all federal, state and local government web resources and services.